Flag for Germany Weather past 2 weeks in Homberg (Efze), Hesse, Germany

Now
62 °F

Overcast.


Feels Like: 62 °F
Forecast: 50 / 78 °F
Wind: 2 mph from Southeast

Location: Fritzlar

Current Time: Aug 28, 2015 at 12:17:09 PM

Latest Report: Aug 28, 2015 at 11:00 AM


Visibility: 13 mi

Pressure: 30.04 "Hg

Humidity: 75%

Dew point: 54 °F

Location of Homberg (Efze)Location

Historic Weather in Homberg (Efze) — Graph

°F

Homberg (Efze) temperature yesterday

Maximum temperature yesterday: 71 °F (at 5:00 PM)
Minimum temperature yesterday: 60 °F (at 1:00 AM)
Average temperature yesterday: 66 °F

Past Weeks' High & Low Weather Summary

 TemperatureHumidityPressure
High87 °F (Aug 13, 5:00 PM)99% (Aug 19, 8:00 AM)30.32 "Hg (Aug 19, 8:00 AM)
Low50 °F (Aug 21, 5:00 AM)29% (Aug 22, 4:00 PM)29.64 "Hg (Aug 24, 3:00 PM)
Average65 °F73%29.95 "Hg
* Reported Aug 13 11:00 AM — Aug 28 11:00 AM, Homberg (Efze), Weather by CustomWeather, © 2015

Note: Actual official high and low records may vary slightly from our data, if they occured in-between our weather recording intervals... More about our weather records

Advertising

Homberg (Efze) weather history for previous 24 hours

 ConditionsComfort  
Time TempWeatherWind HumidityBarometerVisibility
11:00 AM
Fri, Aug 28
62 °FOvercast.2 mph75%30.04 "Hg12 mi
10:00 AM61 °FOvercast.1 mph77%30.03 "Hg9 mi
9:00 AM60 °FPartly sunny.N/A84%30.01 "Hg7 mi
8:00 AM57 °FPartly sunny.1 mph92%30.01 "Hg6 mi
7:00 AM57 °FLow clouds.1 mph91%29.99 "Hg6 mi
5:00 AM57 °FLow clouds.1 mph92%29.95 "Hg7 mi
4:00 AM57 °FRain. Overcast.1 mph91%29.95 "Hg4 mi
3:00 AM57 °FRain. Low clouds.3 mph91%29.92 "Hg4 mi
2:00 AM58 °FRain. Overcast.5 mph91%29.90 "Hg4 mi
1:00 AM60 °FHeavy rain. Low clouds.3 mph94%29.88 "Hg3 mi
11:00 PM
Thu, Aug 27
62 °FRain. Low clouds.1 mph96%29.85 "Hg3 mi
10:00 PM62 °FRain. Low clouds.2 mph93%29.85 "Hg3 mi
9:00 PM64 °FLight rain. Overcast.1 mph93%29.86 "Hg7 mi
8:00 PM65 °FLight rain. Overcast.3 mph89%29.85 "Hg12 mi
7:00 PM68 °FLight rain. Overcast.2 mph81%29.81 "Hg16 mi
6:00 PM69 °FLight rain. Overcast.2 mph73%29.81 "Hg22 mi
5:00 PM71 °FOvercast.1 mph63%29.81 "Hg22 mi
4:00 PM71 °FOvercast.2 mph64%29.84 "Hg25 mi
3:00 PM69 °FOvercast.1 mph66%29.85 "Hg25 mi
2:00 PM67 °FOvercast.3 mph73%29.87 "Hg22 mi
1:00 PM62 °FOvercast.2 mph82%29.92 "Hg19 mi
12:00 PM67 °FLight rain. Overcast.6 mph64%29.92 "Hg7 mi
Weather by CustomWeather, © 2015

See weather overviewHow to use our weather pages